FENGYUN 1C DEB, 30018

Orbit data source: Space-Track

FENGYUN 1C DEB, 30018 is space debris in SSO originally from a launch on Mon, 10 May 1999 UTC launched from the Taiyaun Space Center, China (TSC). Fengyun 1C debris stems from the Chinese weather satellite Fengyun-1C, which was intentionally destroyed by a Chinese anti-satellite missile in 2007. This event dramatically increased the amount of space debris, with thousands of trackable fragments posing hazards to satellites and human spaceflight. The Fengyun 1C debris cloud has become a focal point in discussions about space sustainability and the need for international regulations to prevent the creation of new debris.

Loading next visibility...
Identifier
30018, 1999-025MT
Orbit
SSO
Country
Flag of CNCN / PRC
Related business
Manufacturer
Unknown
Mission
Spacecraft
Bus & Motor
Unknown
Mass
Unknown
Launch date (UTC)
Icon of a cake. It is the launch day of the satellite!1999-05-10 (27 years ago)
Launch vehicle
Unknown
Launch site
Taiyaun Space Center, China (TSC)
Object type
Payload
Rocket body
Debris
Shape & HBR
Unknown shape, 0.1 m
Radar Cross Section
Small (<0.1 m²)

Expand to show TLE details & history
Last TLE update: 7 hours ago

TLE from 7 hours ago
0 FENGYUN 1C DEB
1 30018U 99025MT  26130.21184536  .00002675  00000-0  36853-3 0  9997
2 30018  98.7472 229.5626 0114711  89.8221 328.3976 14.74729862 26240
Epoch: 2026-05-10T05:05Z
TLE epoch observation values (Epoch: 2026-05-10T05:05:03.439Z)
Latitude
56.59358°
Longitude
-88.1357°
Altitude
587.074 km
Speed
7.609 km/s
True Right ascension
14h 24m 35s
True Declination
56° 25' 53"
Sunlit
Object was in daylight at epoch
Visualization orbit readout
Latitude
Unknown
Longitude
Unknown
Altitude
Unknown
Speed
Unknown
Apparent Right ascension
Unknown
Apparent Declination
Unknown
Sunlit
N/A
Visualization observer readout
Local Sidereal Time
19:50:25
Azimuth
Unknown
Elevation
Unknown
Doppler factor
Unknown
Orbital elements
Apogee altitude
723.637 km
Perigee altitude
562.555 km
Semi-major axis
7,021.233 km
Eccentricity
0.01147
Inclination
98.7472°
RAAN
229.5626°
Arg. of periapsis
89.8221°
True anomaly
327.70028°
Mean anomaly
328.3976°
Eccentric anomaly
328.0498°
Mean motion
3.68912 °/min
Orbital period
97.58 mins
BSTAR
0.00036853
Loading maneuver chart data...
Computing Atmospheric mass density...

Documentation

Showing up to 5 results
|